Find Starlink 4560

NORAD ID: 53691 Int'l Des: 2022-105 Owner: SPXS Country: US Constellation: starlink operational
LEOCIRCULARRETROGRADESSO

当前视图

正在加载3D地球...

About Starlink 4560

Starlink 4560 (NORAD 53691) is a starlink constellation satellite (v1.5) launched Aug 31, 2022 by SPXS of US. It operates in LEO, CIRCULAR, RETROGRADE, SSO orbit with a mass of 300.00 kg.

关于 Starlink 4560

正在加载描述...

即将过境

Passes for default location (London). Set your location on the main map for personalized predictions.

高度历史

Loading altitude history...

两行轨道根数

1 53691U 22105AV 26194.81571037 .00000002 00000-0 40240-5 0 9995
2 53691 97.2853 73.5040 0002831 87.7896 272.3656 15.05656072212281
Epoch: Jul 13, 2026 • Age: 10 hours

当前状态

高度 553.0 km
远地点 / 近地点 N/A
速度 7.59 km/s
星下点 33.73°N, 120.24°W
发射日期 Aug 31, 2022
运行时间 3.8 years
类型 internet

技术详情

分类 Payload
质量 300.00 kg
干质量 290.00 kg
总质量 300.00 kg
长度 0.20 m
直径 2.80 m
跨度 9.00 m
形状 Box + pan
制造商 SPXS
平台类型 Starlink
阶段状态 In Orbit
所有者/国家 SPXS/US

Most Searched